San Jose, Costa Rica

12:04 AM CST on August 21, 2017 (GMT -0600)
Juan Santamaria International

Weather History for MROC - November, 2013

Change the Weather History Date:

Wednesday, November 20, 2013

  Actual Average Record
Temperature  
Mean Temperature 70 °F -  
Max Temperature 81 °F 79 °F 84 °F (2015)
Min Temperature 59 °F 64 °F 59 °F (2013)
Cooling Degree Days 5    
Growing Degree Days 20 (Base 50)    
Moisture  
Dew Point 63 °F    
Average Humidity 78    
Maximum Humidity 100    
Minimum Humidity 40    
Precipitation  
Precipitation 0.04 in 0.09 in - ()
Sea Level Pressure  
Sea Level Pressure 29.98 in    
Wind  
Wind Speed 6 mph ()    
Max Wind Speed 13 mph    
Max Gust Speed -    
Visibility 7.2 miles    
Events Fog , Rain    
Averages and records for this station are not official NWS values.
T = Trace of Precipitation, MM = Missing Value Source: Averaged Metar Reports

Daily Weather History Graph

Daily Weather History Graph

Search for Another Location

Airport or City:

Trip Planner

Search our weather history database for the weather conditions in past years. The results will help you decide how hot, cold, wet, or windy it might be!

Date:

Astronomy

Nov. 20, 2013 Rise Set
Actual Time 5:33 AM CST 5:11 PM CST
Civil Twilight 5:11 AM CST 5:33 PM CST
Nautical Twilight 4:45 AM CST 5:59 PM CST
Astronomical Twilight 4:19 AM CST 6:25 PM CST
Moon 7:53 PM CST (11/20) 7:57 AM CST (11/20)
Length of Visible Light 12h 22m
Length of Day
11h 38m
Waning Gibbous, 91% of the Moon is Illuminated
Nov 20
Waning Gibbous
Nov 25
Last Quarter
Dec 2
New
Dec 9
First Quarter
Dec 17
Full

Hourly Weather History & Observations

Time (CST) Temp. Dew Point Humidity Pressure Visibility Wind Dir Wind Speed Gust Speed Precip Events Conditions
12:00 AM 65 °F 61 °F 82% 29.84 in 12 mi ENE 5.8 mph - -   Clear
12:00 AM 64.4 °F 60.8 °F 88% 30.00 in - ENE 5.8 mph - N/A   Clear
1:00 AM 64.4 °F 59.0 °F 83% 29.98 in - East 5.8 mph - N/A   Clear
2:00 AM 62.6 °F 57.2 °F 82% 29.98 in - ENE 6.9 mph - N/A   Clear
3:00 AM 62 °F 58 °F 81% 29.82 in 12 mi East 6.9 mph - -  
3:00 AM 62.6 °F 57.2 °F 82% 29.97 in - East 6.9 mph - N/A   Clear
4:00 AM 62.6 °F 57.2 °F 82% 29.98 in - East 8.1 mph - N/A   Clear
5:00 AM 60.8 °F 55.4 °F 82% 29.99 in - ENE 9.2 mph - N/A   Clear
6:00 AM 61 °F 56 °F 78% 29.89 in 12 mi ENE 6.9 mph - -   Clear
6:00 AM 60.8 °F 55.4 °F 82% 30.01 in - ENE 6.9 mph - N/A   Clear
7:00 AM 69.8 °F 59.0 °F 68% 30.04 in - ENE 3.5 mph - N/A   Clear
8:00 AM 75.2 °F 57.2 °F 53% 30.04 in - East 3.5 mph - N/A   Clear
9:00 AM 79 °F 59 °F 40%  in 12 mi SSW 4.6 mph - -  
9:00 AM 78.8 °F 59.0 °F 51% 30.04 in - SSW 4.6 mph - N/A   Clear
10:00 AM 78.8 °F 60.8 °F 54% 30.04 in - SW 5.8 mph - N/A   Clear
11:00 AM 78.8 °F 64.4 °F 61% 30.02 in 6.2 mi WSW 9.2 mph - N/A   Scattered Clouds
12:00 PM 79 °F 66 °F 56% 29.84 in 12 mi WSW 9.2 mph - -   Scattered Clouds
12:00 PM 78.8 °F 66.2 °F 65% 30.01 in 6.2 mi WSW 9.2 mph - N/A   Partly Cloudy
1:00 PM 78.8 °F 66.2 °F 65% 29.98 in 6.2 mi SW 10.4 mph - N/A   Scattered Clouds
2:00 PM 77.0 °F 66.2 °F 69% 29.96 in 6.2 mi WSW 12.7 mph - N/A   Scattered Clouds
3:00 PM 77.0 °F 68.0 °F 74% 29.96 in 6.2 mi West 10.4 mph - N/A   Scattered Clouds
4:00 PM 73.4 °F 68.0 °F 83% 29.97 in 6.2 mi SW 10.4 mph - N/A   Mostly Cloudy
5:00 PM 71.6 °F 68.0 °F 88% 29.98 in 6.2 mi WSW 9.2 mph - N/A Rain Light Rain
6:00 PM 69 °F 69 °F 100% 29.90 in 5 mi WSW 8.1 mph - - Fog Light Fog
6:00 PM 69.8 °F 69.8 °F 100% 30.00 in 5.0 mi WSW 8.1 mph - N/A Fog Fog
7:00 PM 69.8 °F 68.0 °F 94% 30.04 in 5.0 mi WSW 4.6 mph - N/A Fog Fog
8:00 PM 69.8 °F 68.0 °F 94% 30.04 in 5.0 mi WSW 3.5 mph - N/A Fog Fog
9:00 PM 69 °F 68 °F 96% 29.93 in 5 mi West 2.3 mph - - Fog Shallow Fog
9:00 PM 69.8 °F 68.0 °F 94% 30.06 in 5.0 mi West 2.3 mph - N/A Fog Fog
10:00 PM 69.8 °F 68.0 °F 94% 30.06 in 5.0 mi NNW 2.3 mph - N/A Fog Fog
11:00 PM 68.0 °F 68.0 °F 100% 30.04 in 6.2 mi Calm Calm - N/A Fog Mostly Cloudy